Location: Newark
(49.3000°N, 9.4667°E)
Time: 05:19:28
(UTC+00:00)

Tiros 1 - Pass Details

Date: 25 May 2019
Orbit: 631 x 664 km, 48.4° (Epoch: 18 June)

Event Time Altitude Azimuth Distance (km) Brightness Sun altitude
Rises 12:45:52 0° 275° (W) 2,940 10.8 56.8°
Reaches altitude 10° 12:48:12 10° 274° (W) 2,035 10.1 56.6°
Maximum altitude 12:52:53 76° 189° (S) 670 8.8 56.1°
Drops below altitude 10° 12:57:36 10° 104° (ESE) 2,055 9.7 55.6°
Sets 12:59:58 0° 103° (ESE) 2,970 10.4 55.3°
